Stations météo

réclame
Mon MeteoGroup
Antwerpen, Belgique (6450): Température de l'air & dewpoint: 14.07.2019 03:00:00 - 20.07.2019 03:00:00 (CEST)Antwerpen, Belgique (6450): Vitesse du vent & gusts: 14.07.2019 03:00:00 - 20.07.2019 03:00:00 (CEST)Antwerpen, Belgique (6450): Direction du vent: 14.07.2019 03:00:00 - 20.07.2019 03:00:00 (CEST)Antwerpen, Belgique (6450): reduced air pressure: 14.07.2019 03:00:00 - 20.07.2019 03:00:00 (CEST)Antwerpen, Belgique (6450): visibility: 14.07.2019 03:00:00 - 20.07.2019 03:00:00 (CEST)
Date & Time tt [°C] td [°C] ff [km/h] ff [knt] fx [km/h] fx [knt] dd ppp [hPa] vv [km]
20.07.2019 03:00:00 19,2 14,3 11 6 14 8 SE 1010,9 10
20.07.2019 02:00:00 20,0 14,1 11 6 - - SSE 1011,3 10
20.07.2019 01:00:00 20,3 14,0 11 6 18 10 SSE 1011,9 10
20.07.2019 00:00:00 20,7 13,9 9 5 11 6 SSE 1012,2 10
19.07.2019 23:00:00 19,5 14,6 8 4 - - SE 1012,5 10
19.07.2019 22:00:00 20,4 14,2 5 3 11 6 SE 1012,7 10
19.07.2019 21:00:00 23,9 11,6 8 4 14 8 S 1012,7 10
19.07.2019 20:00:00 24,3 11,6 11 6 - - SSW 1013,1 10
19.07.2019 19:00:00 24,0 10,9 9 5 25 14 SW 1013,3 10
19.07.2019 18:00:00 24,0 10,2 16 9 29 16 SSW 1013,6 10
19.07.2019 17:00:00 23,8 11,2 15 8 - - SSW 1013,8 10
19.07.2019 16:00:00 23,8 10,7 18 10 29 16 SW 1014,1 10
19.07.2019 15:00:00 23,6 11,8 15 8 25 14 WSW 1014,4 10
19.07.2019 14:00:00 22,9 11,4 16 9 - - SW 1014,4 10
19.07.2019 13:00:00 22,3 12,9 15 8 25 14 SSW 1014,2 10
19.07.2019 12:00:00 22,0 13,3 11 6 25 14 SSW 1014,3 10
19.07.2019 11:00:00 20,4 13,7 15 8 - - SW 1014,6 10
19.07.2019 10:00:00 19,0 13,9 11 6 18 10 SW 1014,6 10
19.07.2019 09:00:00 17,7 13,5 11 6 18 10 SW 1014,2 10
19.07.2019 08:00:00 16,6 12,8 11 6 - - SW 1013,8 10
19.07.2019 07:00:00 15,8 13,0 7 4 14 8 SW 1013,6 20
19.07.2019 06:00:00 15,9 12,6 9 5 14 8 SW 1013,4 10
19.07.2019 05:00:00 16,3 12,8 11 6 - - WSW 1013,4 40
19.07.2019 04:00:00 17,2 13,6 8 4 14 8 WSW 1013,4 10
19.07.2019 03:00:00 17,5 14,0 5 3 14 8 WSW 1013,2 10
19.07.2019 02:00:00 18,2 14,1 8 4 - - SW 1013,1 10
19.07.2019 01:00:00 18,7 14,3 8 4 11 6 SW 1012,9 10
19.07.2019 00:00:00 18,9 14,3 8 4 11 6 SSW 1012,8 10
18.07.2019 23:00:00 19,4 14,5 9 5 - - SW 1012,7 10
18.07.2019 22:00:00 19,8 14,5 11 6 22 12 WSW 1012,6 10
18.07.2019 21:00:00 20,0 14,2 13 7 32 18 WSW 1012,2 10
18.07.2019 20:00:00 20,1 14,4 16 9 - - WSW 1012,1 10
18.07.2019 19:00:00 19,9 14,5 16 9 32 18 W 1012,0 10
18.07.2019 18:00:00 21,0 14,2 22 12 32 18 W 1012,0 15
18.07.2019 17:00:00 22,6 13,6 18 10 - - SW 1011,6 10
18.07.2019 16:00:00 22,1 13,3 11 6 25 14 SW 1011,7 15
18.07.2019 15:00:00 22,3 13,5 13 7 25 14 SW 1011,7 10
18.07.2019 14:00:00 21,8 13,6 11 6 - - SW 1011,7 15
18.07.2019 13:00:00 21,4 12,8 15 8 29 16 WSW 1011,8 10
18.07.2019 12:00:00 19,9 12,3 18 10 29 16 WSW 1012,0 10
18.07.2019 11:00:00 19,9 12,1 16 9 - - SW 1011,7 10
18.07.2019 10:00:00 19,2 12,3 11 6 22 12 SW 1011,6 10
18.07.2019 09:00:00 18,0 11,9 13 7 22 12 SW 1011,6 10
18.07.2019 08:00:00 17,5 10,1 13 7 - - WSW 1011,6 10
18.07.2019 07:00:00 16,7 11,9 11 6 22 12 W 1011,3 10
18.07.2019 06:00:00 17,6 12,3 5 3 11 6 SW 1011,4 10
18.07.2019 05:00:00 16,2 12,8 4 2 - - SE 1011,5 10
18.07.2019 04:00:00 15,8 12,5 4 2 11 6 - 1011,8 10
18.07.2019 03:00:00 16,1 12,7 5 3 7 4 SE 1012,1 10
18.07.2019 02:00:00 16,5 12,8 5 3 - - SE 1012,5 10
18.07.2019 01:00:00 17,5 12,9 5 3 11 6 SE 1012,6 10
18.07.2019 00:00:00 17,9 13,0 8 4 7 4 ESE 1012,7 10
17.07.2019 23:00:00 18,8 13,8 5 3 - - ESE 1013,0 10
17.07.2019 22:00:00 20,5 13,4 5 3 11 6 ESE 1013,1 10
17.07.2019 21:00:00 21,5 13,9 8 4 11 6 E 1013,1 10
17.07.2019 20:00:00 22,9 13,6 8 4 - - ESE 1013,2 10
17.07.2019 19:00:00 23,8 11,4 8 4 14 8 ESE 1013,5 10
17.07.2019 18:00:00 24,2 12,1 7 4 18 10 SE 1013,8 25
17.07.2019 17:00:00 25,0 12,0 8 4 - - S 1014,4 10
17.07.2019 16:00:00 24,6 12,2 5 3 18 10 - 1014,9 10
17.07.2019 15:00:00 23,3 12,2 8 4 22 12 SSE 1015,2 10
17.07.2019 14:00:00 23,0 12,5 9 5 - - SE 1015,6 10
17.07.2019 13:00:00 22,4 12,6 5 3 14 8 - 1016,0 10
17.07.2019 12:00:00 21,3 12,3 2 1 11 6 - 1016,4 10
17.07.2019 11:00:00 19,6 10,8 4 2 - - - 1016,5 10
17.07.2019 10:00:00 18,7 12,6 2 1 7 4 - 1016,8 10
17.07.2019 09:00:00 16,8 14,9 2 1 4 2 - 1016,8 6
17.07.2019 08:00:00 14,8 14,3 2 1 - - NE 1016,7 3,5
17.07.2019 07:00:00 11,3 11,2 2 1 4 2 - 1016,8 2,9
17.07.2019 06:00:00 10,0 9,7 2 1 4 2 SSE 1016,9 0,5
17.07.2019 05:00:00 10,7 10,5 0 0 - - N 1016,9 0,7
17.07.2019 04:00:00 11,6 10,8 0 0 4 2 N 1017,2 3,2
17.07.2019 03:00:00 11,2 10,7 0 0 7 4 N 1017,8 5
17.07.2019 02:00:00 13,8 12,2 2 1 - - NNE 1017,9 10
17.07.2019 01:00:00 14,6 12,8 4 2 11 6 NNE 1017,9 10
17.07.2019 00:00:00 14,4 12,2 0 0 4 2 N 1018,0 10
16.07.2019 23:00:00 16,2 11,4 0 0 - - N 1018,0 10
16.07.2019 22:00:00 17,0 11,8 8 4 18 10 N 1018,0 10
16.07.2019 21:00:00 19,1 11,7 5 3 18 10 NNW 1017,9 10
16.07.2019 20:00:00 19,8 11,3 8 4 - - NW 1018,1 10
16.07.2019 19:00:00 19,5 11,1 9 5 18 10 NW 1018,3 10
16.07.2019 18:00:00 20,2 11,7 8 4 14 8 NW 1018,5 10
16.07.2019 17:00:00 20,0 11,1 8 4 - - NW 1019,0 10
16.07.2019 16:00:00 19,9 10,8 9 5 22 12 NNW 1019,3 10
16.07.2019 15:00:00 19,4 11,1 5 3 22 12 - 1019,4 10
16.07.2019 14:00:00 18,5 10,8 9 5 - - NW 1019,8 10
16.07.2019 13:00:00 17,9 10,0 7 4 14 8 WNW 1020,0 30
16.07.2019 12:00:00 17,0 9,8 9 5 22 12 WNW 1020,2 10
16.07.2019 11:00:00 16,0 9,2 11 6 - - W 1020,5 10
16.07.2019 10:00:00 15,5 9,6 11 6 18 10 WNW 1020,5 10
16.07.2019 09:00:00 15,2 10,3 9 5 14 8 WNW 1020,3 10
16.07.2019 08:00:00 15,0 10,5 5 3 - - WNW 1020,3 10
16.07.2019 07:00:00 14,8 10,5 4 2 7 4 - 1020,2 10
16.07.2019 06:00:00 14,8 10,4 4 2 11 6 N 1020,0 45
16.07.2019 05:00:00 14,9 10,0 2 1 - - - 1020,0 10
16.07.2019 04:00:00 15,0 9,9 4 2 11 6 - 1020,2 10
16.07.2019 03:00:00 15,2 10,6 8 4 14 8 N 1020,6 10
16.07.2019 02:00:00 15,0 11,4 5 3 - - N 1020,7 10
16.07.2019 01:00:00 15,0 11,8 5 3 14 8 NNW 1020,8 10
16.07.2019 00:00:00 15,1 11,6 9 5 18 10 N 1020,9 10
15.07.2019 23:00:00 15,1 11,7 11 6 - - N 1020,9 10
15.07.2019 22:00:00 15,8 11,3 13 7 18 10 N 1020,8 10
15.07.2019 21:00:00 16,4 11,3 13 7 22 12 N 1020,7 10
15.07.2019 20:00:00 16,8 12,1 15 8 - - NNW 1020,7 10
15.07.2019 19:00:00 17,1 11,0 13 7 25 14 N 1020,8 10
15.07.2019 18:00:00 17,6 11,2 15 8 29 16 NNW 1021,0 10
15.07.2019 17:00:00 17,5 11,3 18 10 - - NNW 1021,2 10
15.07.2019 16:00:00 17,9 10,3 9 5 22 12 NNW 1021,0 10
15.07.2019 15:00:00 17,9 10,4 11 6 22 12 N 1021,1 10
15.07.2019 14:00:00 17,1 10,6 8 4 - - - 1021,3 10
15.07.2019 13:00:00 15,4 10,7 13 7 25 14 N 1021,6 10
15.07.2019 12:00:00 15,9 10,5 8 4 18 10 - 1021,3 10
15.07.2019 11:00:00 15,9 10,6 11 6 - - NNE 1021,2 10
15.07.2019 10:00:00 15,5 10,3 8 4 14 8 N 1021,3 10
15.07.2019 09:00:00 14,9 11,5 9 5 14 8 N 1021,2 10
15.07.2019 08:00:00 14,8 10,7 5 3 - - N 1020,8 10
15.07.2019 07:00:00 14,5 10,6 4 2 7 4 - 1020,7 10
15.07.2019 06:00:00 13,9 10,9 4 2 7 4 - 1020,7 10
15.07.2019 05:00:00 13,5 10,6 2 1 - - N 1020,6 10
15.07.2019 04:00:00 11,3 10,6 0 0 7 4 N 1020,8 10
15.07.2019 03:00:00 12,2 9,9 4 2 7 4 N 1021,3 10
15.07.2019 02:00:00 12,6 10,1 5 3 - - N 1021,5 10
15.07.2019 01:00:00 13,1 10,1 5 3 14 8 N 1021,5 10
15.07.2019 00:00:00 13,7 10,6 9 5 22 12 N 1021,6 10
14.07.2019 23:00:00 14,7 10,7 11 6 - - N 1021,4 10
14.07.2019 22:00:00 15,8 10,7 13 7 25 14 N 1021,1 10
14.07.2019 21:00:00 17,3 11,6 16 9 29 16 N 1020,9 10
14.07.2019 20:00:00 17,8 11,8 18 10 - - N 1020,8 10
14.07.2019 19:00:00 18,5 11,6 15 8 25 14 N 1020,8 10
14.07.2019 18:00:00 19,8 11,3 16 9 29 16 N 1020,6 10
14.07.2019 17:00:00 18,2 12,0 16 9 - - N 1021,0 10
14.07.2019 16:00:00 17,5 11,2 9 5 32 18 N 1021,1 10
14.07.2019 15:00:00 19,2 10,9 9 5 25 14 N 1021,0 10
14.07.2019 14:00:00 17,2 11,3 13 7 - - NNE 1021,3 10
14.07.2019 13:00:00 17,0 11,5 15 8 29 16 N 1021,4 10
14.07.2019 12:00:00 17,0 11,9 13 7 25 14 N 1021,3 10
14.07.2019 11:00:00 16,8 12,3 8 4 - - N 1021,4 10
14.07.2019 10:00:00 15,7 11,8 13 7 22 12 NNE 1021,4 10
14.07.2019 09:00:00 16,1 12,1 8 4 18 10 NNE 1021,1 10
14.07.2019 08:00:00 15,2 10,9 11 6 - - NNE 1020,8 10
14.07.2019 07:00:00 15,0 11,6 4 2 14 8 NNE 1020,8 30
14.07.2019 06:00:00 14,7 11,5 4 2 25 14 N 1020,7 30
14.07.2019 05:00:00 14,7 11,5 11 6 - - N 1020,9 10
14.07.2019 04:00:00 15,2 10,8 8 4 14 8 N 1021,0 10
14.07.2019 03:00:00 15,2 10,8 9 5 25 14 NNE 1021,2 10

tt = Température de l'air
td = dewpoint
ff = Vitesse du vent
fx = gusts
dd = Direction du vent
ppp = reduced air pressure
vv = visibility

stations d'obs. à proximité